Regional Weather Roundup
Issued by NWS

Home | Current Version | Previous Version | Text Only | Print | Product List | Glossary Off
Versions: 1 2 3 4 5 6 7 8 9 10 11 12 13 14 15 16 17 18 19 20 21 22 23 24 25 26 27 28 29 30 31 32 33 34 35 36 37 38 39 40 41 42 43 44 45 46 47 48 49

000
ASUS45 KCYS 240810
RWRWY

WYOMING REGIONAL WEATHER ROUNDUP
NATIONAL WEATHER SERVICE CHEYENNE WY
100 AM MST WED DEC 24 2014

NOTE:  "FAIR" INDICATES FEW OR NO CLOUDS BELOW 12,000 FEET
WITH NO SIGNIFICANT WEATHER AND/OR OBSTRUCTIONS TO VISIBILITY.

WYZ001-240900-
YELLOWSTONE NATIONAL PARK

CITY           SKY/WX    TMP DP  RH WIND       PRES   REMARKS
LK YELLOWSTONE   N/A     18  15  88 VRB5      30.11F WCI  11
W YELLOWSTONE  NOT AVBL

$$
WYZ002>013-054>058-071-098>099-240900-
NORTHERN WYOMING

CITY           SKY/WX    TMP DP  RH WIND       PRES   REMARKS
JACKSON        MOCLDY    12  10  92 N6        30.17F WCI   3
CODY           FAIR      36  18  48 W23G38    29.91F WCI  24
GREYBULL       FAIR      16  14  92 S3        30.03F
WORLAND        FAIR       7   3  84 S5        30.03F WCI  -2
SHERIDAN       FAIR      21  13  71 E3        29.88F
BUFFALO        FAIR      25   4  40 S7        29.90F WCI  17
GILLETTE       FAIR      26  12  55 SW17      29.92F WCI  13
HULETT           N/A    N/A N/A N/A MISG        N/A
NEWCASTLE      FAIR      12   9  85 N6        30.00F WCI   3

$$
WYZ014>020-022>026-101>103-240900-
CENTRAL WYOMING

CITY           SKY/WX    TMP DP  RH WIND       PRES   REMARKS
BIG PINEY      FAIR       9   4  80 NW5       30.15F WCI   1
PINEDALE       FAIR      14   9  79 E6        30.13F WCI   5
DUBOIS         NOT AVBL
LANDER         FAIR      15   5  64 CALM      30.02F
RIVERTON       FAIR      17   6  62 SW9       30.03F WCI   6
CASPER         FAIR      22   9  57 SW18G28   29.99F WCI   7
DOUGLAS        FAIR      11   7  84 CALM      29.99F

$$
WYZ021-027>030-104>119-240900-
SOUTHERN WYOMING

CITY           SKY/WX    TMP DP  RH WIND       PRES   REMARKS
EVANSTON       FAIR      14  10  84 SW8       30.20F WCI   3
FORT BRIDGER   FAIR      21   7  54 SW8       30.20F WCI  11
ROCK SPRINGS   FAIR      19  10  68 W18       30.15F WCI   4
DIXON          FAIR       5   1  83 E5        30.23F WCI  -4
RAWLINS        FAIR      17   7  64 NW10G20   30.11F WCI   5
SARATOGA       FAIR       9   3  78 S6        30.13F WCI  -1
LARAMIE        FAIR       8   1  73 S12       29.99F WCI  -7
CHEYENNE       FAIR      15   4  61 W7        29.99F WCI   5
TORRINGTON     FAIR      17  11  77 CALM      30.03F
PINE BLUFFS    FAIR      10   9  92 SW9       30.03F WCI  -2

$$



USA.gov is the U.S. government's official web portal to all federal, state and local government web resources and services.